This is the latest recevied weather packets stored in our database for station/object SQ5OUZ-1. If no packets are shown the sender has not sent any weather packets the latest 10 day(s).
| Time | Temp. | Humidity | Pressure | Rain* | Wind** | Luminosity | Snow |
|---|---|---|---|---|---|---|---|
| 1777155813 | 12.22° C | 45% | 1005.7 hPa | - | - | - | - |
| 1777154910 | 12.22° C | 44% | 1005.9 hPa | - | - | - | - |
| 1777154007 | 12.22° C | 45% | 1006 hPa | - | - | - | - |
| 1777153103 | 12.22° C | 46% | 1006.2 hPa | - | - | - | - |
| 1777152200 | 11.67° C | 49% | 1006.4 hPa | - | - | - | - |
| 1777151297 | 11.67° C | 45% | 1006.6 hPa | - | - | - | - |
| 1777150394 | 11.67° C | 45% | 1006.6 hPa | - | - | - | - |
| 1777149491 | 12.22° C | 44% | 1006.8 hPa | - | - | - | - |
| 1777148587 | 12.22° C | 43% | 1007 hPa | - | - | - | - |
| 1777147684 | 12.22° C | 43% | 1007.3 hPa | - | - | - | - |
| 1777146781 | 12.22° C | 43% | 1007.3 hPa | - | - | - | - |
| 1777145878 | 12.78° C | 42% | 1007.2 hPa | - | - | - | - |
| 1777144974 | 12.78° C | 41% | 1007.4 hPa | - | - | - | - |
| 1777144071 | 12.78° C | 41% | 1007.6 hPa | - | - | - | - |
| 1777143168 | 12.78° C | 41% | 1007.5 hPa | - | - | - | - |
| 1777142264 | 13.33° C | 40% | 1007.7 hPa | - | - | - | - |
| 1777141361 | 13.33° C | 38% | 1007.6 hPa | - | - | - | - |
| 1777140458 | 13.89° C | 38% | 1007.7 hPa | - | - | - | - |
| 1777139555 | 14.44° C | 37% | 1007.8 hPa | - | - | - | - |
| 1777138651 | 15° C | 36% | 1007.8 hPa | - | - | - | - |
| 1777137748 | 15° C | 35% | 1007.9 hPa | - | - | - | - |
| 1777136845 | 15.56° C | 33% | 1007.8 hPa | - | - | - | - |
| 1777135381 | 16.11° C | 32% | 1007.9 hPa | - | - | - | - |
| 1777134478 | 16.67° C | 30% | 1007.9 hPa | - | - | - | - |
| 1777133575 | 17.22° C | 29% | 1008 hPa | - | - | - | - |
* Rain since midnight (hover to see other rain measurements)
** Current wind speed in m/s (hover to see current wind gust speed)